Regional Weather Roundup
Issued by NWS Burlington, VT

Home | Current Version | Previous Version | Text Only | Print | Product List | Glossary On
Versions: 1 2 3 4 5 6 7 8 9 10 11 12 13 14 15 16 17 18 19 20 21 22 23 24 25 26 27 28 29 30 31 32 33 34 35 36 37 38 39 40 41 42 43 44 45 46 47 48 49 50
000
ASUS41 KBTV 171730
RWRBTV
VERMONT REGIONAL WEATHER ROUNDUP
NATIONAL WEATHER SERVICE BURLINGTON VT
100 PM EDT WED SEP 17 2014

NOTE: "FAIR" INDICATES FEW OR NO CLOUDS BELOW 12,000 FEET WITH NO
SIGNIFICANT WEATHER AND/OR OBSTRUCTIONS TO VISIBILITY.

* THESE REPORTS ARE NOT UNDER NWS QUALITY CONTROL AND/OR DO NOT
  REPORT WEATHER SUCH AS PRECIPITATION AND FOG.

VTZ001>019-171800-
_____VERMONT_____


CITY           SKY/WX    TMP DP  RH WIND       PRES   REMARKS
BURLINGTON     MOSUNNY   65  42  43 VRB6      29.98F
MONTPELIER     PTSUNNY   62  45  53 VRB6      30.02F
MORRISVILLE    CLOUDY    63  45  51 CALM      29.99F
ST. JOHNSBURY*   N/A     61  43  51 MISG      29.96F
MIDDLEBURY*    PTSUNNY   62  44  51 SW5       29.99F
RUTLAND*       MOSUNNY   59  41  51 W7        29.99F
SPRINGFIELD    PTSUNNY   62  44  51 VRB3      29.99F
HIGHGATE*      FAIR      64  42  45 SW5       29.96F
NEWPORT*       FAIR      61  46  56 W7        29.97F
BENNINGTON     PTSUNNY   63  43  48 VRB6G18   30.02F
SUTTON*          N/A     61 N/A N/A MISG        N/A
MT. MANSFIELD*   N/A     46 N/A N/A W10         N/A

_____LAKE CHAMPLAIN_____


CITY           SKY/WX    TMP DP  RH WIND       PRES   REMARKS
BURTON ISLAND*   N/A     61  48  63 S12         N/A
COLCHESTER RF*   N/A     61  46  59 S13         N/A
DIAMOND ISL*     N/A     59  48  67 W3          N/A

$$

NYZ007-026>031-035-052-083-171800-
_____NORTHERN NEW YORK_____


CITY           SKY/WX    TMP DP  RH WIND       PRES   REMARKS
PLATTSBURGH    SUNNY     65  40  39 VRB3      29.97F
SARANAC LAKE   MOSUNNY   58  40  51 SW12      29.98F
MASSENA        PTSUNNY   65  49  56 S14G21    29.97F
OGDENSBURG*    PTSUNNY   66  50  55 SW9       29.95F
WATERTOWN      CLOUDY    60  49  66 S6        29.99F
FT DRUM        PTSUNNY   59  48  65 SW10G17   29.99F
ALBANY         PTSUNNY   63  45  51 NW5       30.02F
GLENS FALLS    MOSUNNY   64  43  46 MISG      30.00F

$$
NHZ002-005-011-171800-
_____NEW HAMPSHIRE_____


CITY           SKY/WX    TMP DP  RH WIND       PRES   REMARKS
LEBANON        MOSUNNY   64  40  41 CALM      29.98F
KEENE          PTSUNNY   63  39  42 NE6       30.00F
MT WASHINGTON  MOSUNNY   39  32  75 SW5         N/A
PLYMOUTH       FAIR      65  51  61 W6        29.97F
WHITEFIELD     SUNNY     62  42  47 VRB3      29.98F

$$

_____REGIONAL QUEBEC LOCATIONS_____


CITY           SKY/WX    TMP DP  RH WIND       PRES   REMARKS
MONTREAL       PTSUNNY   59  48  67 SW10      29.96F
QUEBEC CITY    LGT RAIN  54  48  82 SW5       29.95F
SHERBROOKE     CLOUDY    61  45  55 SW13      29.95F

_____REGIONAL ONTARIO LOCATIONS_____


CITY           SKY/WX    TMP DP  RH WIND       PRES   REMARKS
OTTAWA         PTSUNNY   61  50  67 S8        29.95F

______KEY______
VSB  - VISIBILITY IN MILES
WCI  - WIND CHILL INDEX
HX   - HEAT INDEX
$$



USA.gov is the U.S. government's official web portal to all federal, state and local government web resources and services.